Home   Weather   Santa Clara   Past weeks
Flag for Cuba

Past Weather in Santa Clara, Cuba — Yesterday and Last 2 Weeks

Now
88 °F

Passing clouds.


Feels Like: 98 °F
Forecast: 89 / 74 °F
Wind: 5 mph from West

Location: Cienfuegos - Las Villas

Current Time: Oct 22, 2019 at 1:00:47 pm

Latest Report: Oct 22, 2019 at 11:51 am


Visibility: N/A

Pressure: 30.01 "Hg

Humidity: 66%

Dew Point: 75 °F

Location of Santa ClaraLocation

Past Weather in Santa Clara — Graph

°F

Santa Clara Temperature Yesterday

Maximum temperature yesterday: 90 °F (at 12:51 pm)
Minimum temperature yesterday: 73 °F (at 6:58 am)
Average temperature yesterday: 81 °F

High & Low Weather Summary for the Past Weeks

 TemperatureHumidityPressure
High91 °F (Oct 9, 2:50 pm)100% (Oct 7, 1:51 pm)30.04 "Hg (Oct 7, 1:51 pm)
Low72 °F (Oct 8, 3:59 am)52% (Oct 21, 1:53 pm)29.86 "Hg (Oct 7, 1:51 pm)
Average80 °F87%29.94 "Hg
* Reported Oct 7 10:51 am — Oct 22 10:51 am, Santa Clara. Weather by CustomWeather, © 2019

Note: Actual official high and low records may vary slightly from our data, if they occured in-between our weather recording intervals... More about our weather records

Advertising

Santa Clara Weather History for the Previous 24 Hours

Scroll right to see more
 ConditionsComfort  
Time TempWeatherWind HumidityBarometerVisibility
10:51 am
Tue, Oct 22
86 °FPassing clouds.5 mph70%30.04 "HgN/A
9:54 am84 °FPassing clouds.1 mph79%30.01 "HgN/A
8:52 am81 °FPassing clouds.3 mph89%30.01 "HgN/A
7:59 am77 °FWarm.6 mph94%29.98 "HgN/A
6:59 am75 °FMild.5 mph100%29.98 "HgN/A
5:59 am75 °FMild.3 mph100%29.98 "HgN/A
4:59 am75 °FMild.3 mph100%29.98 "HgN/A
3:59 am75 °FMild.3 mph100%29.98 "HgN/A
2:59 am77 °FWarm.3 mph94%30.01 "HgN/A
1:59 am77 °FWarm.2 mph94%29.98 "HgN/A
12:59 am79 °FWarm.6 mph94%30.01 "HgN/A
11:59 pm
Mon, Oct 21
79 °FWarm.6 mph94%30.01 "HgN/A
10:59 pm79 °FWarm.3 mph94%30.01 "HgN/A
9:59 pm79 °FWarm.6 mph94%30.04 "HgN/A
8:59 pm81 °FWarm.6 mph89%30.01 "HgN/A
7:59 pm81 °FWarm.1 mph84%29.98 "HgN/A
6:58 pm82 °FWarm.3 mph79%29.95 "HgN/A
5:59 pm88 °FWarm.6 mph62%29.95 "HgN/A
4:59 pm88 °FWarm.6 mph62%29.95 "HgN/A
3:51 pm90 °FScattered clouds.7 mph63%29.95 "HgN/A
2:50 pm90 °FScattered clouds.6 mph55%29.95 "HgN/A
1:53 pm90 °FScattered clouds.6 mph52%29.98 "HgN/A
Weather by CustomWeather, © 2019

See weather overview